VOZ9265 YANG-YBRM

Flight info

Callsign VOZ9265
Flight time 1h 8m
Altitude 33000
Route ASEBU Y31 BRM
Aircraft A320/M-SDE3FGHIM3RWYZ/LB1

Departure

Time 2026-05-06 11:54
Airport West Angelas Airport (YANG)

Arrival

Time 2026-05-06 13:03
Airport Broome International Airport (YBRM)
Time Latitude Longitude Altitude Speed Heading
2026-05-06 11:33 -23.13685 118.70395 2330 ft 0 kts 346°
2026-05-06 11:48 -23.13681 118.70394 2330 ft 0 kts
2026-05-06 11:48 -23.13680 118.70396 2330 ft 0 kts 32°
2026-05-06 11:49 -23.13679 118.70401 2330 ft 1 kts 100°
2026-05-06 11:49 -23.13695 118.70419 2330 ft 3 kts 134°
2026-05-06 11:49 -23.13703 118.70437 2330 ft 1 kts 98°
2026-05-06 11:49 -23.13699 118.70461 2331 ft 6 kts 79°
2026-05-06 11:50 -23.13692 118.70507 2332 ft 4 kts 87°
2026-05-06 11:50 -23.13696 118.70523 2332 ft 0 kts 121°
2026-05-06 11:50 -23.13700 118.70530 2332 ft 3 kts 121°
2026-05-06 11:51 -23.13734 118.70567 2333 ft 10 kts 157°
2026-05-06 11:51 -23.13799 118.70528 2330 ft 13 kts 226°
2026-05-06 11:51 -23.13870 118.70450 2326 ft 15 kts 225°
2026-05-06 11:51 -23.13951 118.70362 2321 ft 17 kts 225°
2026-05-06 11:52 -23.14041 118.70266 2316 ft 18 kts 225°
2026-05-06 11:52 -23.14131 118.70168 2313 ft 17 kts 226°
2026-05-06 11:52 -23.14197 118.70109 2310 ft 8 kts 199°
2026-05-06 11:52 -23.14203 118.70091 2310 ft 4 kts
2026-05-06 11:53 -23.14189 118.70100 2310 ft 0 kts 43°
2026-05-06 11:54 -23.14096 118.70203 2314 ft 55 kts 46°
2026-05-06 11:54 -23.13651 118.70692 2339 ft 123 kts 45°
2026-05-06 11:54 -23.12954 118.71429 2687 ft 145 kts 51°
2026-05-06 11:54 -23.12251 118.72156 3459 ft 140 kts 50°
2026-05-06 11:55 -23.11564 118.72862 4244 ft 137 kts 52°
2026-05-06 11:55 -23.10879 118.73596 4710 ft 144 kts 52°
2026-05-06 11:55 -23.10137 118.74401 5016 ft 160 kts 52°
2026-05-06 11:55 -23.09300 118.75309 5317 ft 178 kts 51°
2026-05-06 11:56 -23.08373 118.76307 5656 ft 195 kts 51°
2026-05-06 11:56 -23.07367 118.77387 5988 ft 214 kts 50°
2026-05-06 11:56 -23.06248 118.78585 6303 ft 236 kts 50°
2026-05-06 11:56 -23.05032 118.79884 6761 ft 253 kts 49°
2026-05-06 11:57 -23.03757 118.81248 7455 ft 260 kts 48°
2026-05-06 11:57 -23.02469 118.82622 8212 ft 263 kts 47°
2026-05-06 11:57 -23.01150 118.84027 8955 ft 267 kts 47°
2026-05-06 11:57 -22.99817 118.85447 9665 ft 270 kts 46°
2026-05-06 11:58 -22.98473 118.86875 10316 ft 275 kts 46°
2026-05-06 11:58 -22.97074 118.88358 10780 ft 286 kts 46°
2026-05-06 11:58 -22.95614 118.89909 11085 ft 303 kts 46°
2026-05-06 11:58 -22.94089 118.91528 11575 ft 311 kts 45°
2026-05-06 11:59 -22.92524 118.93191 12163 ft 316 kts 45°
2026-05-06 11:59 -22.90952 118.94859 12712 ft 321 kts 45°
2026-05-06 11:59 -22.89338 118.96572 13269 ft 325 kts 45°
2026-05-06 11:59 -22.87698 118.98312 13812 ft 330 kts 45°
2026-05-06 12:00 -22.86050 119.00061 14355 ft 334 kts 45°
2026-05-06 12:00 -22.84392 119.01820 14898 ft 338 kts 44°
2026-05-06 12:00 -22.82699 119.03614 15435 ft 341 kts 44°
2026-05-06 12:00 -22.80980 119.05437 15948 ft 346 kts 44°
2026-05-06 12:01 -22.79269 119.07248 16443 ft 350 kts 44°
2026-05-06 12:01 -22.77512 119.09108 16960 ft 353 kts 44°
2026-05-06 12:01 -22.75746 119.10977 17461 ft 357 kts 44°
2026-05-06 12:01 -22.73942 119.12887 17936 ft 361 kts 44°
2026-05-06 12:02 -22.72137 119.14796 18423 ft 364 kts 44°
2026-05-06 12:02 -22.70335 119.16704 18892 ft 367 kts 44°
2026-05-06 12:02 -22.68479 119.18666 19341 ft 372 kts 44°
2026-05-06 12:02 -22.66637 119.20612 19781 ft 375 kts 44°
2026-05-06 12:03 -22.64743 119.22613 20227 ft 379 kts 44°
2026-05-06 12:03 -22.62863 119.24598 20679 ft 382 kts 44°
2026-05-06 12:03 -22.60947 119.26620 21141 ft 384 kts 44°
2026-05-06 12:03 -22.59025 119.28649 21565 ft 388 kts 43°
2026-05-06 12:04 -22.57072 119.30709 21966 ft 392 kts 43°
2026-05-06 12:04 -22.55106 119.32782 22373 ft 395 kts 43°
2026-05-06 12:04 -22.53126 119.34868 22774 ft 398 kts 43°
2026-05-06 12:04 -22.51124 119.36977 23173 ft 401 kts 43°
2026-05-06 12:05 -22.49133 119.39074 23549 ft 404 kts 43°
2026-05-06 12:05 -22.47107 119.41208 23903 ft 407 kts 43°
2026-05-06 12:05 -22.45052 119.43371 24285 ft 410 kts 43°
2026-05-06 12:05 -22.43006 119.45524 24645 ft 413 kts 42°
2026-05-06 12:06 -22.40934 119.47701 24982 ft 416 kts 42°
2026-05-06 12:06 -22.38830 119.49912 25311 ft 419 kts 42°
2026-05-06 12:06 -22.36750 119.52096 25622 ft 423 kts 41°
2026-05-06 12:06 -22.34636 119.54315 25927 ft 426 kts 42°
2026-05-06 12:07 -22.32489 119.56567 26249 ft 429 kts 41°
2026-05-06 12:07 -22.30348 119.58814 26566 ft 432 kts 41°
2026-05-06 12:07 -22.28159 119.61110 26872 ft 435 kts 41°
2026-05-06 12:07 -22.26004 119.63365 27173 ft 438 kts 41°
2026-05-06 12:08 -22.23798 119.65676 27477 ft 441 kts 40°
2026-05-06 12:08 -22.21586 119.67993 27751 ft 444 kts 40°
2026-05-06 12:08 -22.19354 119.70328 28026 ft 447 kts 40°
2026-05-06 12:08 -22.17124 119.72661 28285 ft 450 kts 40°
2026-05-06 12:09 -22.14880 119.75005 28548 ft 452 kts 40°
2026-05-06 12:09 -22.12604 119.77383 28816 ft 455 kts 39°
2026-05-06 12:09 -22.10311 119.79778 29091 ft 457 kts 39°
2026-05-06 12:09 -22.08012 119.82175 29335 ft 460 kts 39°
2026-05-06 12:10 -22.05709 119.84580 29546 ft 463 kts 39°
2026-05-06 12:10 -22.03388 119.87002 29766 ft 466 kts 39°
2026-05-06 12:10 -22.01062 119.89428 29970 ft 469 kts 39°
2026-05-06 12:10 -21.98714 119.91872 30178 ft 471 kts 39°
2026-05-06 12:11 -21.96345 119.94338 30395 ft 474 kts 39°
2026-05-06 12:11 -21.93969 119.96813 30612 ft 476 kts 39°
2026-05-06 12:11 -21.91602 119.99277 30868 ft 477 kts 38°
2026-05-06 12:11 -21.89196 120.01781 31167 ft 477 kts 38°
2026-05-06 12:12 -21.86798 120.04275 31420 ft 478 kts 38°
2026-05-06 12:12 -21.84400 120.06763 31597 ft 481 kts 38°
2026-05-06 12:12 -21.81998 120.09256 31787 ft 483 kts 38°
2026-05-06 12:12 -21.79568 120.11777 32002 ft 484 kts 38°
2026-05-06 12:13 -21.77147 120.14290 32223 ft 486 kts 38°
2026-05-06 12:13 -21.74681 120.16847 32436 ft 487 kts 38°
2026-05-06 12:13 -21.72256 120.19358 32614 ft 490 kts 38°
2026-05-06 12:13 -21.69775 120.21928 32820 ft 491 kts 38°
2026-05-06 12:14 -21.67333 120.24457 33050 ft 493 kts 38°
2026-05-06 12:14 -21.64842 120.27032 33072 ft 494 kts 38°
2026-05-06 12:14 -21.59880 120.32161 33154 ft 500 kts 38°
2026-05-06 12:15 -21.57341 120.34781 33319 ft 503 kts 38°
2026-05-06 12:15 -21.54793 120.37412 33583 ft 504 kts 38°
2026-05-06 12:15 -21.52297 120.39992 33893 ft 503 kts 38°
2026-05-06 12:15 -21.49760 120.42610 34204 ft 503 kts 38°
2026-05-06 12:16 -21.47226 120.45225 34507 ft 502 kts 38°
2026-05-06 12:16 -21.44715 120.47814 34817 ft 501 kts 38°
2026-05-06 12:16 -21.42222 120.50382 35058 ft 502 kts 38°
2026-05-06 12:16 -21.39688 120.52992 35067 ft 502 kts 38°
2026-05-06 12:17 -21.34660 120.58164 35065 ft 502 kts 38°
2026-05-06 12:17 -21.29604 120.63362 35068 ft 502 kts 38°
2026-05-06 12:18 -21.24561 120.68540 35059 ft 501 kts 37°
2026-05-06 12:18 -21.19531 120.73698 35060 ft 501 kts 37°
2026-05-06 12:19 -21.14494 120.78860 35054 ft 501 kts 37°
2026-05-06 12:19 -21.09430 120.84044 35048 ft 501 kts 37°
2026-05-06 12:20 -21.04367 120.89221 35054 ft 501 kts 37°
2026-05-06 12:20 -20.99327 120.94371 35047 ft 501 kts 37°
2026-05-06 12:21 -20.94313 120.99488 35048 ft 502 kts 37°
2026-05-06 12:21 -20.89231 121.04671 35048 ft 502 kts 37°
2026-05-06 12:22 -20.84173 121.09824 35049 ft 502 kts 37°
2026-05-06 12:22 -20.79122 121.14964 35053 ft 502 kts 37°
2026-05-06 12:23 -20.74037 121.20138 35051 ft 502 kts 37°
2026-05-06 12:23 -20.68975 121.25275 35058 ft 502 kts 37°
2026-05-06 12:24 -20.63928 121.30396 35054 ft 502 kts 37°
2026-05-06 12:24 -20.58838 121.35558 35052 ft 502 kts 37°
2026-05-06 12:25 -20.53799 121.40660 35049 ft 501 kts 37°
2026-05-06 12:25 -20.48714 121.45805 35050 ft 501 kts 37°
2026-05-06 12:26 -20.43642 121.50933 35044 ft 502 kts 37°
2026-05-06 12:26 -20.38584 121.56042 35039 ft 501 kts 37°
2026-05-06 12:27 -20.33511 121.61161 35036 ft 501 kts 37°
2026-05-06 12:27 -20.28431 121.66282 35033 ft 501 kts 36°
2026-05-06 12:28 -20.23343 121.71409 35034 ft 500 kts 36°
2026-05-06 12:28 -20.18268 121.76449 35028 ft 500 kts 33°
2026-05-06 12:29 -20.12757 121.80924 35030 ft 489 kts 24°
2026-05-06 12:29 -20.06884 121.84441 35030 ft 480 kts 15°
2026-05-06 12:30 -20.00772 121.87193 35031 ft 476 kts 12°
2026-05-06 12:30 -19.94610 121.89844 35024 ft 475 kts 12°
2026-05-06 12:31 -19.88470 121.92509 35021 ft 476 kts 12°
2026-05-06 12:31 -19.82324 121.95190 35015 ft 475 kts 12°
2026-05-06 12:32 -19.76195 121.97861 34987 ft 477 kts 12°
2026-05-06 12:32 -19.73111 121.99204 34709 ft 476 kts 12°
2026-05-06 12:32 -19.70047 122.00543 34422 ft 473 kts 12°
2026-05-06 12:33 -19.66998 122.01877 34136 ft 470 kts 12°
2026-05-06 12:33 -19.63962 122.03199 33860 ft 467 kts 12°
2026-05-06 12:33 -19.60931 122.04519 33579 ft 468 kts 12°
2026-05-06 12:33 -19.57898 122.05833 33300 ft 470 kts 12°
2026-05-06 12:34 -19.54875 122.07147 33023 ft 471 kts 12°
2026-05-06 12:34 -19.51877 122.08452 32676 ft 469 kts 12°
2026-05-06 12:34 -19.48823 122.09781 32133 ft 468 kts 12°
2026-05-06 12:34 -19.45832 122.11079 31538 ft 469 kts 13°
2026-05-06 12:35 -19.42788 122.12399 30940 ft 468 kts 13°
2026-05-06 12:35 -19.39787 122.13704 30545 ft 462 kts 13°
2026-05-06 12:35 -19.36836 122.14990 30172 ft 455 kts 13°
2026-05-06 12:35 -19.33876 122.16276 29726 ft 451 kts 14°
2026-05-06 12:36 -19.30984 122.17531 29263 ft 447 kts 13°
2026-05-06 12:36 -19.28110 122.18776 28855 ft 441 kts 14°
2026-05-06 12:36 -19.25257 122.20015 28428 ft 437 kts 14°
2026-05-06 12:36 -19.22445 122.21233 28013 ft 432 kts 14°
2026-05-06 12:37 -19.19673 122.22432 27551 ft 428 kts 14°
2026-05-06 12:37 -19.16920 122.23623 27100 ft 425 kts 14°
2026-05-06 12:37 -19.14192 122.24803 26649 ft 421 kts 14°
2026-05-06 12:37 -19.11479 122.25977 26211 ft 417 kts 14°
2026-05-06 12:38 -19.08796 122.27137 25759 ft 414 kts 14°
2026-05-06 12:38 -19.06102 122.28101 25247 ft 400 kts
2026-05-06 12:38 -19.03389 122.28037 24739 ft 375 kts 340°
2026-05-06 12:38 -19.00926 122.27325 24324 ft 367 kts 336°
2026-05-06 12:39 -18.98467 122.26537 23840 ft 365 kts 336°
2026-05-06 12:39 -18.96054 122.25793 23414 ft 362 kts 337°
2026-05-06 12:39 -18.93615 122.25075 22933 ft 362 kts 338°
2026-05-06 12:39 -18.91166 122.24379 22359 ft 364 kts 339°
2026-05-06 12:40 -18.88696 122.23692 21738 ft 367 kts 339°
2026-05-06 12:40 -18.86186 122.23006 21095 ft 370 kts 340°
2026-05-06 12:40 -18.83674 122.22328 20482 ft 372 kts 341°
2026-05-06 12:40 -18.81153 122.21654 19955 ft 371 kts 341°
2026-05-06 12:41 -18.78639 122.20987 19483 ft 369 kts 341°
2026-05-06 12:41 -18.76177 122.20335 19026 ft 366 kts 342°
2026-05-06 12:41 -18.73714 122.19683 18546 ft 364 kts 342°
2026-05-06 12:41 -18.71244 122.19029 18071 ft 363 kts 342°
2026-05-06 12:42 -18.68769 122.18372 17598 ft 361 kts 342°
2026-05-06 12:42 -18.66354 122.17734 17154 ft 359 kts 342°
2026-05-06 12:42 -18.63941 122.17096 16726 ft 356 kts 343°
2026-05-06 12:42 -18.61536 122.16461 16288 ft 353 kts 343°
2026-05-06 12:43 -18.59144 122.15829 15850 ft 351 kts 343°
2026-05-06 12:43 -18.56762 122.15199 15391 ft 349 kts 343°
2026-05-06 12:43 -18.54392 122.14571 14948 ft 347 kts 343°
2026-05-06 12:43 -18.52069 122.13958 14522 ft 345 kts 344°
2026-05-06 12:44 -18.49734 122.13341 14077 ft 343 kts 344°
2026-05-06 12:44 -18.47419 122.12729 13637 ft 341 kts 344°
2026-05-06 12:44 -18.45104 122.12118 13218 ft 339 kts 345°
2026-05-06 12:44 -18.42832 122.11519 12805 ft 337 kts 345°
2026-05-06 12:45 -18.40541 122.10915 12402 ft 335 kts 345°
2026-05-06 12:45 -18.38297 122.10324 11981 ft 333 kts 345°
2026-05-06 12:45 -18.33826 122.09145 11252 ft 326 kts 346°
2026-05-06 12:46 -18.31642 122.08570 10972 ft 320 kts 346°
2026-05-06 12:46 -18.29486 122.08002 10665 ft 315 kts 346°
2026-05-06 12:46 -18.27357 122.07440 10373 ft 311 kts 346°
2026-05-06 12:46 -18.25249 122.06885 10079 ft 306 kts 346°
2026-05-06 12:47 -18.23222 122.06351 9666 ft 297 kts 346°
2026-05-06 12:47 -18.21245 122.05831 9246 ft 289 kts 347°
2026-05-06 12:47 -18.19299 122.05319 8884 ft 287 kts 347°
2026-05-06 12:47 -18.17365 122.04812 8589 ft 284 kts 347°
2026-05-06 12:48 -18.15431 122.04303 8251 ft 283 kts 346°
2026-05-06 12:48 -18.13517 122.03799 7912 ft 282 kts 347°
2026-05-06 12:48 -18.11625 122.03301 7565 ft 282 kts 347°
2026-05-06 12:48 -18.09701 122.02795 7224 ft 281 kts 347°
2026-05-06 12:49 -18.07805 122.02297 6896 ft 281 kts 347°
2026-05-06 12:49 -18.05908 122.01798 6576 ft 279 kts 347°
2026-05-06 12:49 -18.04036 122.01305 6216 ft 274 kts 347°
2026-05-06 12:49 -18.02215 122.00827 5784 ft 267 kts 347°
2026-05-06 12:50 -18.00413 122.00354 5363 ft 260 kts 347°
2026-05-06 12:50 -17.98669 121.99897 4959 ft 253 kts 347°
2026-05-06 12:50 -17.96969 121.99573 4575 ft 245 kts
2026-05-06 12:50 -17.95397 122.00112 4215 ft 235 kts 34°
2026-05-06 12:51 -17.94109 122.01127 3851 ft 229 kts 39°
2026-05-06 12:51 -17.92877 122.02174 3522 ft 222 kts 38°
2026-05-06 12:51 -17.91677 122.03153 3339 ft 217 kts 37°
2026-05-06 12:51 -17.90489 122.04166 3246 ft 218 kts 49°
2026-05-06 12:52 -17.89928 122.05615 3084 ft 221 kts 90°
2026-05-06 12:52 -17.90308 122.07181 2976 ft 223 kts 110°
2026-05-06 12:52 -17.90893 122.08679 2733 ft 226 kts 109°
2026-05-06 12:52 -17.91447 122.10250 2338 ft 232 kts 107°
2026-05-06 12:53 -17.91942 122.11843 1990 ft 224 kts 105°
2026-05-06 12:53 -17.92377 122.13355 1674 ft 207 kts 104°
2026-05-06 12:53 -17.92759 122.14745 1490 ft 193 kts 104°
2026-05-06 12:53 -17.93117 122.16085 1245 ft 183 kts 103°
2026-05-06 12:54 -17.93429 122.17345 997 ft 172 kts 102°
2026-05-06 12:54 -17.93727 122.18526 725 ft 163 kts 105°
2026-05-06 12:54 -17.94033 122.19627 498 ft 151 kts 105°
2026-05-06 12:54 -17.94318 122.20647 279 ft 142 kts 106°
2026-05-06 12:55 -17.94588 122.21651 102 ft 142 kts 106°
2026-05-06 12:55 -17.94841 122.22604 127 ft 136 kts 106°
2026-05-06 12:55 -17.95117 122.23608 543 ft 150 kts 106°
2026-05-06 12:55 -17.95416 122.24672 1181 ft 156 kts 104°
2026-05-06 12:56 -17.95710 122.25762 1753 ft 157 kts 103°
2026-05-06 12:56 -17.96068 122.26901 2064 ft 179 kts 116°
2026-05-06 12:56 -17.97131 122.27799 2080 ft 219 kts 162°
2026-05-06 12:56 -17.98684 122.27707 2019 ft 230 kts 207°
2026-05-06 12:57 -17.99826 122.26536 2065 ft 238 kts 248°
2026-05-06 12:57 -18.00269 122.24772 2098 ft 262 kts 263°
2026-05-06 12:57 -18.00487 122.22835 2095 ft 268 kts 266°
2026-05-06 12:57 -18.00653 122.20897 2093 ft 268 kts 266°
2026-05-06 12:58 -18.00814 122.18930 2089 ft 268 kts 266°
2026-05-06 12:58 -18.00973 122.16992 2086 ft 267 kts 266°
2026-05-06 12:58 -18.01132 122.15041 2083 ft 267 kts 267°
2026-05-06 12:58 -18.01010 122.13125 2070 ft 264 kts 290°
2026-05-06 12:59 -18.00071 122.11504 2076 ft 260 kts 319°
2026-05-06 12:59 -17.98513 122.10580 2074 ft 255 kts 348°
2026-05-06 12:59 -17.96779 122.10510 1979 ft 244 kts
2026-05-06 12:59 -17.95129 122.10775 1793 ft 230 kts 11°
2026-05-06 13:00 -17.93592 122.11077 1780 ft 226 kts 11°
2026-05-06 13:00 -17.92048 122.11395 1773 ft 220 kts 15°
2026-05-06 13:00 -17.90737 122.12122 1657 ft 208 kts 47°
2026-05-06 13:00 -17.90103 122.13444 1388 ft 206 kts 83°
2026-05-06 13:01 -17.90348 122.14893 1115 ft 205 kts 120°
2026-05-06 13:01 -17.91269 122.15968 979 ft 189 kts 137°
2026-05-06 13:01 -17.92207 122.16856 859 ft 169 kts 137°
2026-05-06 13:01 -17.93022 122.17651 735 ft 156 kts 133°
2026-05-06 13:02 -17.93659 122.18540 601 ft 147 kts 119°
2026-05-06 13:02 -17.94028 122.19512 376 ft 142 kts 104°
2026-05-06 13:02 -17.94288 122.20509 292 ft 140 kts 105°
2026-05-06 13:02 -17.94550 122.21512 134 ft 143 kts 105°
2026-05-06 13:03 -17.94786 122.22408 70 ft 92 kts 104°
2026-05-06 13:03 -17.94925 122.22900 59 ft 60 kts 105°
2026-05-06 13:03 -17.95017 122.23251 49 ft 35 kts 107°
2026-05-06 13:03 -17.95068 122.23383 46 ft 11 kts 155°
2026-05-06 13:04 -17.95128 122.23378 47 ft 5 kts 194°
2026-05-06 13:04 -17.95152 122.23372 47 ft 3 kts 194°
2026-05-06 13:04 -17.95179 122.23352 47 ft 5 kts 244°
2026-05-06 13:04 -17.95193 122.23315 48 ft 5 kts 239°
2026-05-06 13:05 -17.95227 122.23296 48 ft 6 kts 194°
2026-05-06 13:05 -17.95274 122.23285 48 ft 7 kts 194°
2026-05-06 13:05 -17.95317 122.23275 48 ft 4 kts 174°
2026-05-06 13:05 -17.95324 122.23305 48 ft 6 kts 65°
2026-05-06 13:06 -17.95314 122.23325 48 ft 0 kts 61°